TimeEST,TemperatureF,Dew PointF,Humidity,Sea Level PressureIn,VisibilityMPH,Wind Direction,Wind SpeedMPH,Gust SpeedMPH,PrecipitationIn,Events,Conditions,WindDirDegrees,DateUTC
12:54 AM,26.1,21.9,84,30.35,10.0,Calm,Calm,-,N/A,,Mostly Cloudy,0,2011-11-22 05:54:00
1:54 AM,27.0,21.0,78,30.36,10.0,Calm,Calm,-,N/A,,Scattered Clouds,0,2011-11-22 06:54:00
2:54 AM,25.0,21.0,85,30.38,10.0,Calm,Calm,-,N/A,,Mostly Cloudy,0,2011-11-22 07:54:00
3:54 AM,24.1,19.9,84,30.40,10.0,Calm,Calm,-,N/A,,Scattered Clouds,0,2011-11-22 08:54:00
4:54 AM,25.0,19.0,78,30.40,10.0,Calm,Calm,-,N/A,,Mostly Cloudy,0,2011-11-22 09:54:00
5:54 AM,24.1,19.9,84,30.40,10.0,Calm,Calm,-,N/A,,Mostly Cloudy,0,2011-11-22 10:54:00
6:54 AM,24.1,19.9,84,30.41,10.0,Calm,Calm,-,N/A,,Scattered Clouds,0,2011-11-22 11:54:00
7:54 AM,26.1,21.9,84,30.42,10.0,Calm,Calm,-,N/A,,Scattered Clouds,0,2011-11-22 12:54:00
8:54 AM,28.9,25.0,85,30.42,10.0,Calm,Calm,-,N/A,,Scattered Clouds,0,2011-11-22 13:54:00
9:54 AM,32.0,26.1,79,30.40,10.0,SE,4.6,-,N/A,,Overcast,130,2011-11-22 14:54:00
10:54 AM,35.1,27.0,72,30.38,10.0,ESE,6.9,-,N/A,,Overcast,110,2011-11-22 15:54:00
11:54 AM,37.0,27.0,67,30.33,10.0,East,4.6,-,N/A,,Overcast,90,2011-11-22 16:54:00
12:54 PM,37.9,27.0,65,30.30,10.0,ESE,9.2,-,N/A,,Overcast,110,2011-11-22 17:54:00
1:54 PM,39.0,26.1,60,30.27,10.0,ENE,6.9,-,N/A,,Overcast,70,2011-11-22 18:54:00
2:54 PM,37.9,27.0,65,30.25,10.0,East,4.6,-,N/A,,Overcast,80,2011-11-22 19:54:00
3:54 PM,39.0,27.0,62,30.22,10.0,East,6.9,-,N/A,,Overcast,80,2011-11-22 20:54:00
4:37 PM,39.2,26.6,61,30.19,10.0,East,9.2,-,N/A,,Overcast,100,2011-11-22 21:37:00
4:46 PM,39.2,26.6,61,30.20,10.0,East,9.2,-,N/A,,Overcast,90,2011-11-22 21:46:00
4:54 PM,39.0,27.0,62,30.20,10.0,East,9.2,-,N/A,,Overcast,100,2011-11-22 21:54:00
5:54 PM,37.9,30.0,73,30.17,10.0,East,11.5,-,0.01,Rain,Light Rain,100,2011-11-22 22:54:00
5:56 PM,37.4,30.2,75,30.16,10.0,East,9.2,-,0.00,Rain,Light Rain,100,2011-11-22 22:56:00
6:54 PM,37.0,33.1,86,30.13,4.0,East,10.4,-,0.06,Rain,Rain,100,2011-11-22 23:54:00
7:47 PM,37.4,33.8,87,30.09,6.0,East,12.7,-,0.07,Rain,Light Rain,100,2011-11-23 00:47:00
7:54 PM,37.0,33.1,86,30.09,5.0,East,12.7,-,0.07,Rain,Rain,100,2011-11-23 00:54:00
8:32 PM,35.6,33.8,93,30.05,5.0,East,13.8,-,0.05,Rain,Rain,100,2011-11-23 01:32:00
8:50 PM,35.6,32.0,87,30.02,4.0,East,16.1,-,0.09,Rain,Heavy Rain,100,2011-11-23 01:50:00
8:54 PM,36.0,32.0,86,30.03,4.0,East,15.0,-,0.10,Rain,Heavy Rain,100,2011-11-23 01:54:00
9:13 PM,35.6,32.0,87,30.02,4.0,East,12.7,21.9,0.05,Rain,Rain,100,2011-11-23 02:13:00
9:50 PM,35.6,33.8,93,30.00,5.0,East,12.7,-,0.11,Rain,Rain,90,2011-11-23 02:50:00
9:54 PM,36.0,33.1,89,30.00,5.0,East,13.8,-,0.12,Rain,Rain,90,2011-11-23 02:54:00
10:01 PM,35.6,33.8,93,29.99,4.0,East,12.7,-,0.01,Rain,Rain,90,2011-11-23 03:01:00
10:14 PM,35.6,33.8,93,29.98,4.0,East,15.0,21.9,0.05,Rain,Heavy Rain,90,2011-11-23 03:14:00
10:39 PM,35.6,33.8,93,29.96,4.0,East,10.4,-,0.14,Rain,Heavy Rain,90,2011-11-23 03:39:00
10:54 PM,36.0,33.1,89,29.95,3.0,East,11.5,-,0.20,Rain,Heavy Rain,90,2011-11-23 03:54:00
11:15 PM,35.6,33.8,93,29.93,4.0,East,12.7,-,0.06,Rain,Rain,90,2011-11-23 04:15:00
11:54 PM,37.0,33.1,86,29.91,5.0,East,15.0,24.2,0.16,Rain,Rain,90,2011-11-23 04:54:00